Home   Weather   Malmö   Past weeks

Flag for Sweden Past Weather in Malmö, Sweden — Yesterday and Last 2 Weeks

Now
46 °F

Passing clouds.


Feels Like: 40 °F
Forecast: 44 / 48 °F
Wind: 15 mph from West

Location: Malmo / Sturup

Current Time: Dec 9, 2016 at 6:48:51 pm

Latest Report: Dec 9, 2016 at 6:20 pm


Visibility: N/A

Pressure: 30.04 "Hg

Humidity: 87%

Dew Point: 43 °F

Location of MalmöLocation

Past Weather in Malmö — Graph

°F

Malmö Temperature Yesterday

Maximum temperature yesterday: 50 °F (at 11:20 am)
Minimum temperature yesterday: 45 °F (at 12:20 am)
Average temperature yesterday: 48 °F

High & Low Weather Summary for the Past Weeks

 TemperatureHumidityPressure
High50 °F (Dec 8, 11:20 am)100% (Nov 24, 7:50 pm)30.51 "Hg (Nov 24, 7:50 pm)
Low23 °F (Dec 3, 3:20 am)55% (Nov 28, 11:50 am)29.53 "Hg (Dec 1, 7:20 pm)
Average39 °F87%30.11 "Hg
* Reported Nov 24 5:20 pm — Dec 9 5:50 pm, Malmö, Weather by CustomWeather, © 2016

Note: Actual official high and low records may vary slightly from our data, if they occured in-between our weather recording intervals... More about our weather records

Advertising

Malmö Weather History for the Previous 24 Hours

Scroll right to see more
 ConditionsComfort  
Time TempWeatherWind HumidityBarometerVisibility
5:50 pm
Fri, Dec 9
45 °FPassing clouds.15 mph93%30.04 "HgN/A
5:20 pm45 °FPassing clouds.13 mph93%30.04 "HgN/A
4:50 pm46 °FPassing clouds.16 mph87%30.04 "HgN/A
4:20 pm46 °FPassing clouds.20 mph87%30.04 "HgN/A
3:50 pm46 °FClear.17 mph87%30.04 "Hg10 mi
3:20 pm46 °FSunny.17 mph93%30.01 "Hg10 mi
2:50 pm46 °FSunny.18 mph87%30.01 "Hg10 mi
2:20 pm46 °FPassing clouds.18 mph87%30.01 "HgN/A
1:50 pm48 °FPassing clouds.20 mph82%30.01 "HgN/A
1:20 pm48 °FScattered clouds.18 mph82%30.01 "HgN/A
12:50 pm48 °FPartly sunny.18 mph82%30.01 "HgN/A
12:20 pm46 °FPartly sunny.18 mph87%30.01 "HgN/A
11:50 am46 °FPartly sunny.20 mph87%30.01 "HgN/A
11:20 am46 °FPartly sunny.16 mph87%30.01 "HgN/A
10:50 am46 °FPartly sunny.16 mph87%30.01 "HgN/A
10:20 am46 °FPartly sunny.18 mph87%30.01 "HgN/A
9:50 am46 °FPartly sunny.16 mph93%30.01 "HgN/A
9:20 am48 °FPartly sunny.15 mph87%29.98 "HgN/A
8:50 am46 °FPartly sunny.15 mph93%29.98 "HgN/A
8:20 am46 °FPartly cloudy.13 mph93%29.98 "HgN/A
7:50 am46 °FLow clouds.16 mph93%29.98 "HgN/A
7:20 am48 °FFog.16 mph87%29.98 "Hg4 mi
6:50 am48 °FFog.16 mph87%29.98 "Hg4 mi
6:20 am46 °FPassing clouds.16 mph93%29.98 "HgN/A
5:20 am46 °FLow clouds.15 mph93%29.98 "HgN/A
4:50 am46 °FLow clouds.14 mph93%29.98 "HgN/A
4:20 am46 °FPassing clouds.14 mph93%30.01 "HgN/A
3:50 am46 °FLow clouds.16 mph93%30.01 "HgN/A
3:20 am46 °FLow clouds.15 mph93%30.01 "HgN/A
2:50 am46 °FLow clouds.12 mph93%30.01 "HgN/A
2:20 am46 °FLow clouds.10 mph93%30.01 "HgN/A
1:50 am48 °FLow clouds.12 mph87%30.01 "HgN/A
1:20 am48 °FLow clouds.12 mph94%30.01 "HgN/A
12:50 am48 °FLow clouds.12 mph87%30.04 "HgN/A
12:20 am48 °FLow clouds.9 mph87%30.04 "HgN/A
11:50 pm
Thu, Dec 8
48 °FLow clouds.16 mph94%30.01 "HgN/A
11:20 pm48 °FLow clouds.16 mph94%30.04 "HgN/A
10:50 pm48 °FFog.17 mph94%30.01 "Hg4 mi
10:20 pm48 °FFog.18 mph94%29.98 "Hg4 mi
9:50 pm48 °FFog.18 mph94%29.98 "Hg4 mi
9:20 pm48 °FFog.22 mph94%29.98 "Hg5 mi
8:50 pm48 °FFog.20 mph94%29.98 "HgN/A
8:20 pm48 °FFog.20 mph94%30.01 "Hg5 mi
7:50 pm48 °FFog.21 mph94%29.98 "Hg5 mi
7:20 pm48 °FFog.22 mph94%29.98 "Hg6 mi
6:50 pm48 °FPassing clouds.15 mph94%29.98 "HgN/A
6:20 pm48 °FPassing clouds.17 mph94%29.95 "HgN/A
Weather by CustomWeather, © 2016

See weather overviewHow to use our weather pages